This demonstration page uses our WeatherBlox Daily Observations layout. Learn more.

Hourly Observations for July 23, 2017

Temp ( °F °C ) Dew Point ( °F °C ) Humidity (%) Winds ( mph kmh ) Pressure ( in mb ) Visibility ( mi km ) Precip ( " mm )
12:54 am 00:54 Clear 72 22.2 70 21.1 94 94 N 6 9 29.92 1013 10 16.0934 0 0
1:54 am 01:54 Clear 73 22.8 70 21.1 90 90 W 5 7 29.91 1013 10 16.0934 0 0
2:54 am 02:54 Clear 69 20.6 68 20 96 96 NNE 8 13 29.89 1012 8 12.87472 0 0
3:54 am 03:54 Clear 69 20.6 68 20 96 96 N 5 7 29.89 1012 8 12.87472 0 0
4:54 am 04:54 Clear 67 19.4 65 18.3 93 93 NE 3 6 29.89 1012 8 12.87472 0 0
5:54 am 05:54 Clear 66 18.9 65 18.3 96 96 NNE 5 7 29.92 1013 7 11.26538 0 0
6:54 am 06:54 Sunny 68 20 66 18.9 93 93 Calm 29.94 1014 8 12.87472 0 0
7:54 am 07:54 Sunny 71 21.7 68 20 90 90 W 3 6 29.96 1015 9 14.48406 0 0
8:54 am 08:54 Sunny 75 23.9 69 20.6 82 82 S 3 6 29.96 1015 10 16.0934 0 0
9:54 am 09:54 Partly Cloudy 79 26.1 71 21.7 77 77 WNW 5 7 29.96 1014 10 16.0934 0 0
10:54 am 10:54 Sunny 82 27.8 71 21.7 69 69 WNW 6 9 29.95 1014 10 16.0934 0 0
11:54 am 11:54 Sunny 85 29.4 70 21.1 61 61 NNW 7 11 29.95 1014 10 16.0934 0 0
12:54 pm 12:54 Sunny 88 31.1 69 20.6 54 54 NW 9 15 29.94 1014 10 16.0934 0 0
1:54 pm 13:54 Sunny 89 31.7 69 20.6 52 52 NNE 8 13 29.92 1013 10 16.0934 0 0
2:54 pm 14:54 Sunny 90 32.2 67 19.4 47 47 NNE 9 15 29.92 1013 10 16.0934 0 0
3:54 pm 15:54 Sunny 90 32.2 64 17.8 42 42 NNE 10 17 29.92 1013 10 16.0934 0 0
4:54 pm 16:54 Sunny 89 31.7 65 18.3 45 45 NE 13 20 29.92 1013 10 16.0934 0 0
5:54 pm 17:54 Sunny 87 30.6 65 18.3 48 48 NE 12 19 29.91 1013 10 16.0934 0 0
6:54 pm 18:54 Sunny 84 28.9 64 17.8 51 51 NE 12 19 29.91 1013 10 16.0934 0 0
7:54 pm 19:54 Sunny 81 27.2 64 17.8 57 57 NNE 9 15 29.91 1013 10 16.0934 0 0
8:54 pm 20:54 Clear 76 24.4 64 17.8 67 67 NNE 5 7 29.92 1013 10 16.0934 0 0
9:54 pm 21:54 Clear 76 24.4 64 17.8 67 67 Calm 29.94 1014 10 16.0934 0 0
10:54 pm 22:54 Clear 70 21.1 63 17.2 79 79 N 6 9 29.97 1015 10 16.0934 0 0
11:54 pm 23:54 Clear 70 21.1 63 17.2 79 79 Calm 29.98 1015 10 16.0934 0 0

Powered by AerisWeather